Volver al catálogo

COSMOS 1275 DEB

ActivoPO
NORAD 42112·DEBRIS·🇷🇺 Russia

Lanzado Jun 4, 1981 desde Plesetsk Cosmodrome

Loading…

Próximos Pases (próximas 24 horas)

TLE

ActualizadoSource: Space-Track

Época: Sep 13, 2026, 06:16 UTC

1 42112U 81053PY  26256.26166117  .00004471  00000-0  10426-2 0  9999
2 42112  82.8398  83.3577 0012617 112.8797 247.3737 14.54575419655379

Sigue COSMOS 1275 DEB en tiempo real con AllMySat

Download on the App Store